Regional Weather Roundup
Issued by NWS

Home | Current Version | Previous Version | Graphics & Text | Print | Product List | Glossary On
Versions: 1 2 3 4 5 6 7 8 9 10 11 12 13 14 15 16 17 18 19 20 21 22 23 24 25 26 27 28 29 30 31 32 33 34 35 36 37 38 39 40 41 42 43 44 45 46 47 48 49 50
000
ASUS43 KMPX 011201
RWRMN
WEATHER ROUNDUP FOR MINNESOTA
NATIONAL WEATHER SERVICE TWIN CITIES/CHANHASSEN MN
700 AM CDT SAT OCT 01 2016


NOTE: "FAIR" INDICATES FEW OR NO CLOUDS BELOW 12,000 FEET WITH NO
SIGNIFICANT WEATHER AND/OR OBSTRUCTIONS TO VISIBILITY. N/A MEANS
CURRENT SKY AND/OR WEATHER CONDITIONS ARE NOT AVAILABLE.

MNZ060>063-068>070-011300-
   Twin Cities Metro

CITY           SKY/WX    TMP DP  RH WIND       PRES   REMARKS
TWIN CITIES    PTCLDY    53  50  89 NE5       30.18R
6HR MIN TEMP:  52; 6HR MAX TEMP:  60;

ST PAUL        CLEAR     52  50  93 CALM      30.19R
CRYSTAL        CLOUDY    51  49  92 N5        30.17S FOG
BLAINE         FOG       52  52 100 CALM      30.19R VSB 1/4
LAKEVILLE      CLEAR     52  52 100 CALM      30.17S
EDEN PRAIRIE   CLEAR     53  50  89 N7        30.16S
6HR MIN TEMP:  53; 6HR MAX TEMP:  59;

LAKEVILLE      CLEAR     52  52 100 CALM      30.17S
SOUTH ST PAUL  CLEAR     53  52  95 CALM      30.18R
LAKE ELMO      FAIR      50  50 100 N5        30.19S
$$
MNZ001>005-007-008-013>017-022>024-027-028-011300-
   Northwest Minnesota

CITY           SKY/WX    TMP DP  RH WIND       PRES   REMARKS
BEMIDJI        FOG       49  49 100 SE5       30.22S VSB 3/4
HALLOCK        DRIZZLE   54  50  87 SE8       30.16S
ROSEAU         CLOUDY    52  46  82 CALM      30.20S
WARROAD        CLOUDY    48  45  87 SE5       30.21S
THIEF RVR FALL CLOUDY    46  45  96 SE7       30.19S
CROOKSTON      CLOUDY    48  46  93 SE7       30.17S
FOSSTON        PTCLDY    46  43  87 SE6       30.19S
DETROIT LAKES  CLOUDY    46  46 100 SE9       30.20F FOG
MOORHEAD       MOCLDY    54  48  82 SE9       30.16S
PARK RAPIDS    FOG       51  49  92 SE5       30.21S VSB 3/4
MAHNOMEN       FAIR      48  47  94 SE9       30.18S
$$
MNZ006-009>011-018-025>026-011300-
   North Central Minnesota

CITY           SKY/WX    TMP DP  RH WIND       PRES   REMARKS
BAUDETTE       MOCLDY    47  45  93 SE9       30.22F
FLAG ISLAND    MOCLDY    55  48  76 SE10      30.21S
INTL FALLS     PTCLDY    43  42  97 SE6       30.24F
6HR MIN TEMP:  37; 6HR MAX TEMP:  46;

WASKISH        PTCLDY    43  43 100 CALM      30.22S
BIG FORK       FOG       39  39 100 CALM      30.24S VSB 1/4
GRAND RAPIDS   FOG       48  47  96 SE3       30.25S VSB 3/4
ORR            CLEAR     37  34  87 CALM      30.23S
COOK           CLOUDY    41  41 100 CALM      30.25F
WALKER         CLOUDY    50  49  98 SE5       30.22S
$$
MNZ012-019>021-037-011300-
   Northeast Minnesota

CITY           SKY/WX    TMP DP  RH WIND       PRES   REMARKS
DULUTH         PTCLDY    49  49 100 E5        30.23S
6HR MIN TEMP:  49; 6HR MAX TEMP:  52;

ELY            CLOUDY    46  45  93 CALM      30.25S
HIBBING        FOG       40  40 100 CALM      30.24S VSB 1/4
EVELETH        CLEAR     40  39  97 CALM      30.25S
DULUTH HARBOR  FOG       54  52  94 E8        30.24S VSB 3/4
TWO HARBORS    CLEAR     48  43  81 CALM      30.22S
SILVER BAY     CLOUDY    46  45  93 CALM      30.23R
GRAND MARAIS     N/A     53  49  86 CALM      30.24R
G MARAIS ARPRT CLOUDY    48  43  81 N5        30.27R
$$
MNZ029>031-032-039>041-046>048-054>057-064-011300-
   West Central Minnesota

CITY           SKY/WX    TMP DP  RH WIND       PRES   REMARKS
FERGUS FALLS   PTCLDY    52  52 100 E3        30.20S
MORRIS           N/A     48  48 100 E9        30.17S FOG
ALEXANDRIA     FOG       50  50 100 E8        30.20F VSB 1/4
ELBOW LAKE     FAIR      49  49 100 SE8       30.19R
WADENA         FOG       48  48 100 E6        30.20S VSB 1/2
GLENWOOD       FOG       52  50  93 E7        30.19F VSB 1/4
BENSON         FOG       48  46  93 SE5       30.18S VSB 3/4
ORTONVILLE     CLEAR     46  45  93 CALM      30.17S
MADISON        CLEAR     48  46  93 CALM      30.17S FOG
WILLMAR        FOG       52  52 100 NE3       30.20S VSB 1
$$
MNZ033>034-036-042>043-049>051-058-059-011300-
   Central Minnesota

CITY           SKY/WX    TMP DP  RH WIND       PRES   REMARKS
ST CLOUD       CLOUDY    51  51 100 N5        30.19F
6HR MIN TEMP:  51; 6HR MAX TEMP:  53;

SAUK CENTRE    FOG       51  51 100 E3        30.20S VSB 3/4
PAYNESVILLE    CLOUDY    52  52 100 NE5       30.20S FOG
AITKIN         CLOUDY    52  46  82 CALM      30.21S FOG
PINE RIVER     CLOUDY    50  50 100 CALM      30.24F
BRAINERD       FOG       49  49 100 NE5       30.22S VSB 1/4
STAPLES        CLOUDY    50  50 100 CALM      30.21S FOG
LONG PRAIRIE   SNOW      50  50 100 NE5       30.21S VSB 1/2
LITTLE FALLS   CLOUDY    50  48  93 CALM      30.21S FOG
LITCHFIELD     HVY RAIN  54  54 100 NE3       30.19S VSB 1/4
BUFFALO        CLOUDY    52  50  93 NE6       30.20R FOG
MAPLE LAKE     PTCLDY    52  51  98 CALM      30.20R FOG
HUTCHINSON     CLOUDY    52  52  99 N3        30.19S
$$
MNZ037-044-045-052-053-011300-
   East Central Minnesota

CITY           SKY/WX    TMP DP  RH WIND       PRES   REMARKS
PRINCETON        N/A     52  50  93 NE3       30.20S
MORA           CLEAR     48  46  93 CALM      30.22S
CAMBRIDGE      CLOUDY    54  50  87 N3        30.18S FOG
MOOSE LAKE     CLOUDY    50  48  93 CALM      30.21S FOG
HINCKLEY       CLOUDY    50  50 100 NE3       30.22R FOG
CLOQUET        FOG       52  48  87 CALM      30.23S VSB 1
MCGREGOR       CLOUDY    50  48  93 NE3       30.23S
$$
MNZ071>073-080-081-089-090-097-098-011300-
   Southwest Minnesota

CITY           SKY/WX    TMP DP  RH WIND       PRES   REMARKS
MONTEVIDEO     CLEAR     45  45 100 CALM      30.20R FOG
GRANITE FALLS  CLEAR     45  44  97 CALM      30.19S FOG
CANBY          CLEAR     44  44  97 CALM      30.18F
MARSHALL       PTCLDY    45  44  97 CALM      30.17S
REDWOOD FALLS  CLOUDY    51  49  92 CALM      30.17S
OLIVIA         PTCLDY    50  46  87 CALM      30.17S FOG
PIPESTONE      CLOUDY    55  52  88 CALM      30.17S
WINDOM         CLOUDY    57  52  82 CALM      30.17S
WORTHINGTON    CLOUDY    57  54  89 CALM      30.17S
JACKSON        CLOUDY    57  52  82 CALM      30.17S
TRACY          CLOUDY    56  53  89 CALM      30.17S
$$
MNZ065>067-074>077-082>085-091>093-011300-
   South Central Minnesota

CITY           SKY/WX    TMP DP  RH WIND       PRES   REMARKS
MANKATO        CLOUDY    56  54  93 N5        30.16S
NEW ULM        CLOUDY    54  52  94 NE5       30.16S
ST JAMES       CLOUDY    55  54  94 CALM      30.17S
FAIRMONT       CLOUDY    57  54  89 CALM      30.16S
GLENCOE        FOG       51  51 100 N5        30.17S VSB 1/2
FARIBAULT      CLOUDY    55  54  94 CALM      30.17R
OWATONNA       CLOUDY    57  54  88 CALM      30.16S
WASECA         CLOUDY    55  52  88 NE3       30.17S
ALBERT LEA     CLOUDY    59  55  88 CALM      30.15S
$$
MNZ078>079-086>088-094>096-011300-
   Southeast Minnesota

CITY           SKY/WX    TMP DP  RH WIND       PRES   REMARKS
ROCHESTER      CLOUDY    58  54  86 N8        30.15S
6HR MIN TEMP:  57; 6HR MAX TEMP:  61;

RED WING       CLEAR     55  52  88 NE3       30.16R
DODGE CENTER   CLOUDY    55  54  94 N3        30.16S
WINONA         CLOUDY    59  52  77 CALM      30.14S
AUSTIN         CLOUDY    57  54  88 N3        30.14S
PRESTON        CLOUDY    56  54  92 N7        30.15R
$$
ABBREVIATIONS USED IN REMARKS
   TC - TEMPERATURES IN CELSIUS
  WCI - WIND CHILL INDEX
   HX - HEAT INDEX
  VSB - VISIBILITY
$$



USA.gov is the U.S. government's official web portal to all federal, state and local government web resources and services.